Flag for U.S.A. Weather past 2 weeks in Charlotte, North Carolina, U.S.A.

Now
43 °F

Passing clouds.


Feels Like: 39 °F
Forecast: 30 / 48 °F
Wind: 6 mph from Southwest

Location: Charlotte / Douglas International Airport

Current Time: Jan 29, 2015 at 8:27:39 PM

Latest Report: Jan 29, 2015 at 7:52 PM


Visibility: 10 mi

Pressure: 30.11 "Hg

Humidity: 43%

Dew point: 22 °F

Location of CharlotteLocation

Historic Weather in Charlotte — Graph

°F

Charlotte temperature yesterday

Maximum temperature yesterday: 48 °F (at 2:52 PM)
Minimum temperature yesterday: 25 °F (at 6:52 AM)
Average temperature yesterday: 37 °F

Past Weeks' High & Low Weather Summary

 TemperatureHumidityPressure
High67 °F (Jan 20, 2:52 PM)96% (Jan 16, 6:52 AM)30.34 "Hg (Jan 16, 6:52 AM)
Low25 °F (Jan 28, 6:52 AM)19% (Jan 19, 1:52 PM)29.59 "Hg (Jan 24, 4:52 AM)
Average43 °F57%30.03 "Hg
* Reported Jan 14 6:52 PM — Jan 29 6:52 PM, Charlotte, Weather by CustomWeather, © 2014

Note: Actual official high and low records may vary slightly from our data, if they occured in-between our weather recording intervals... More about our weather records

Advertising

Charlotte weather history for previous 24 hours

 ConditionsComfort  
Time TempWeatherWind HumidityBarometerVisibility
6:52 PM
Jan 29
46 °FPassing clouds.7 mph38%30.11 "Hg10 mi
5:52 PM48 °FPartly cloudy.7 mph36%30.11 "Hg10 mi
4:52 PM49 °FPartly sunny.13 mph35%30.11 "Hg10 mi
3:52 PM50 °FPartly sunny.12 mph35%30.13 "Hg10 mi
2:52 PM47 °FLight rain. Mostly cloudy.9 mph37%30.16 "Hg10 mi
1:52 PM49 °FMostly cloudy.16 mph29%30.20 "Hg10 mi
12:52 PM48 °FPartly sunny.13 mph33%30.24 "Hg10 mi
11:52 AM47 °FPartly sunny.12 mph36%30.28 "Hg10 mi
10:52 AM44 °FPartly sunny.16 mph40%30.31 "Hg10 mi
9:52 AM40 °FPartly sunny.9 mph49%30.32 "Hg10 mi
8:52 AM34 °FSunny.5 mph64%30.33 "Hg10 mi
7:52 AM31 °FPartly sunny.5 mph67%30.34 "Hg10 mi
6:52 AM29 °FPassing clouds.3 mph69%30.32 "Hg10 mi
5:52 AM30 °FPassing clouds.No wind69%30.32 "Hg10 mi
4:52 AM26 °FPassing clouds.No wind74%30.32 "Hg10 mi
3:52 AM30 °FPassing clouds.No wind64%30.31 "Hg10 mi
2:52 AM31 °FClear.3 mph59%30.32 "Hg10 mi
1:52 AM31 °FClear.No wind59%30.32 "Hg10 mi
12:52 AM34 °FClear.No wind52%30.32 "Hg10 mi
11:52 PM
Jan 28
33 °FClear.No wind58%30.34 "Hg10 mi
10:52 PM37 °FPassing clouds.5 mph44%30.32 "Hg10 mi
9:52 PM39 °FPassing clouds.6 mph39%30.31 "Hg10 mi
8:52 PM41 °FPassing clouds.6 mph38%30.31 "Hg10 mi
Weather by CustomWeather, © 2014

See weather overviewHow to use our weather pages